KO4WIL-13 Weather Reports


Display with metric or nautical units.
time (UTC)temp
F
wind
direction
speed
MPH
gust
MPH
rain 1hr
in
rain 24hr
in
rain mn
in
humidity
%
barometer
mb
20260503200525 60 229 1.0 3.0 0.00 0.00 0.00 44 970.2
20260503200024 60 231 1.0 2.0 0.00 0.00 0.00 44 970.3
20260503195521 59 229 1.0 5.0 0.00 0.00 0.00 44 970.4
20260503195019 60 231 1.0 2.0 0.00 0.00 0.00 44 970.5
20260503194517 59 234 1.0 2.0 0.00 0.00 0.00 44 970.4
20260503194015 59 232 2.0 4.0 0.00 0.00 0.00 42 970.6
20260503193513 59 234 2.0 2.0 0.00 0.00 0.00 44 970.5
20260503193011 59 232 3.0 5.0 0.00 0.00 0.00 44 970.6
20260503192509 59 230 2.0 3.0 0.00 0.00 0.00 45 970.7
20260503192006 59 230 2.0 2.0 0.00 0.00 0.00 44 970.8
20260503191504 59 229 2.0 3.0 0.00 0.00 0.00 44 970.9
20260503191002 59 227 0.0 1.0 0.00 0.00 0.00 46 970.9
20260503190457 58 263 1.0 2.0 0.00 0.00 0.00 42 971.0
20260503185955 58 252 2.0 3.0 0.00 0.00 0.00 43 971.0
20260503185453 59 229 0.0 1.0 0.00 0.00 0.00 47 971.0
20260503184951 58 224 0.0 2.0 0.00 0.00 0.00 50 971.1
20260503184449 58 120 1.0 3.0 0.00 0.00 0.00 44 971.2
20260503183946 57 187 1.0 3.0 0.00 0.00 0.00 48 971.2
20260503183444 57 216 2.0 3.0 0.00 0.00 0.00 44 971.2
20260503182942 58 326 1.0 2.0 0.00 0.00 0.00 48 971.3
20260503182441 57 197 0.0 1.0 0.00 0.00 0.00 46 971.4
20260503181938 57 246 1.0 3.0 0.00 0.00 0.00 44 971.5
20260503181436 57 208 1.0 2.0 0.00 0.00 0.00 49 971.5
20260503180934 57 283 2.0 2.0 0.00 0.00 0.00 43 971.5
20260503180432 57 128 1.0 3.0 0.00 0.00 0.00 49 971.5
20260503175930 56 43 1.0 2.0 0.00 0.00 0.00 50 971.6
20260503175428 56 24 2.0 3.0 0.00 0.00 0.00 46 971.7
20260503174926 56 49 1.0 2.0 0.00 0.00 0.00 48 971.7
20260503174424 56 77 2.0 3.0 0.00 0.00 0.00 47 971.7
20260503173922 55 137 2.0 2.0 0.00 0.00 0.00 49 971.8
20260503173420 55 125 2.0 3.0 0.00 0.00 0.00 50 971.9
20260503172917 56 114 1.0 2.0 0.00 0.00 0.00 51 972.0
20260503172415 56 91 2.0 3.0 0.00 0.00 0.00 51 972.0
20260503171913 55 227 1.0 2.0 0.00 0.00 0.00 51 972.0
20260503171411 55 56 1.0 4.0 0.00 0.00 0.00 50 972.1
20260503170909 55 275 0.0 1.0 0.00 0.00 0.00 51 972.2
20260503170407 55 165 2.0 3.0 0.00 0.00 0.00 51 972.2
20260503150820 53 136 0.0 1.0 0.00 0.00 0.00 48 973.1
20260503150318 53 37 0.0 1.0 0.00 0.00 0.00 49 973.1
20260503140254 51 227 0.0 1.0 0.00 0.00 0.00 52 972.9
20260503131232 49 155 1.0 3.0 0.00 0.00 0.00 52 972.7
20260503130731 49 155 1.0 2.0 0.00 0.00 0.00 56 972.7
20260503130229 48 135 1.0 3.0 0.00 0.00 0.00 55 972.7
20260503120204 47 322 0.0 0.0 0.00 0.00 0.00 69 972.2
20260503110642 41 336 0.0 0.0 0.00 0.00 0.00 78 971.6
20260503110140 41 51 0.0 0.0 0.00 0.00 0.00 77 971.5
20260503100116 39 0 0.0 0.0 0.00 0.00 0.00 83 970.9
20260503081534 43 31 0.0 0.0 0.00 0.00 0.00 74 970.4
20260503081033 42 333 0.0 1.0 0.00 0.00 0.00 74 970.3
20260503080531 42 291 0.0 0.0 0.00 0.00 0.00 76 970.3
20260503072515 43 141 0.0 0.0 0.00 0.00 0.00 74 970.1
20260503072013 44 134 0.0 0.0 0.00 0.00 0.00 72 970.1
20260503071511 44 90 0.0 0.0 0.00 0.00 0.00 72 969.9
20260503071009 44 12 0.0 0.0 0.00 0.00 0.00 71 969.8
20260503070507 44 11 0.0 0.0 0.00 0.00 0.00 73 969.8
20260503054936 47 54 0.0 1.0 0.00 0.00 0.00 65 969.6
20260503054434 47 5 0.0 2.0 0.00 0.00 0.00 65 969.7
20260503053932 47 351 0.0 0.0 0.00 0.00 0.00 66 969.7
20260503053430 47 38 0.0 1.0 0.00 0.00 0.00 65 969.6
20260503052927 47 44 0.0 0.0 0.00 0.00 0.00 64 969.6
20260503052426 48 44 0.0 0.0 0.00 0.00 0.00 65 969.6
20260503051924 47 41 0.0 1.0 0.00 0.00 0.00 63 969.6
20260503051422 47 44 0.0 0.0 0.00 0.00 0.00 65 969.6
20260503050920 47 44 0.0 0.0 0.00 0.00 0.00 66 969.6
20260503050418 47 44 0.0 0.0 0.00 0.00 0.00 65 969.6
20260503045916 47 44 0.0 0.0 0.00 0.00 0.00 65 969.6
20260503045414 48 43 0.0 0.0 0.00 0.00 0.00 66 969.5
20260503044912 48 42 0.0 0.0 0.00 0.00 0.00 65 969.5
20260503044410 48 44 0.0 0.0 0.00 0.00 0.00 65 969.5
20260503043908 48 42 0.0 0.0 0.00 0.00 0.00 63 969.4
20260503043407 48 43 0.0 0.0 0.00 0.00 0.00 64 969.4
20260503042904 48 36 1.0 1.0 0.00 0.00 0.00 63 969.3
20260503042402 48 44 0.0 0.0 0.00 0.00 0.00 67 969.4
20260503041900 48 42 0.0 0.0 0.00 0.00 0.00 65 969.3
20260503041359 48 37 0.0 0.0 0.00 0.00 0.00 66 969.3
20260503040857 48 37 0.0 1.0 0.00 0.00 0.00 65 969.2
20260503040354 48 42 0.0 0.0 0.00 0.00 0.00 66 969.2
20260503035853 48 38 0.0 0.0 0.00 0.00 0.00 64 969.1
20260503035350 48 44 0.0 0.0 0.00 0.00 0.00 65 969.2
20260503034847 49 43 0.0 0.0 0.00 0.00 0.00 63 969.1
20260503034345 49 44 0.0 0.0 0.00 0.00 0.00 63 969.1
20260503033843 49 43 0.0 0.0 0.00 0.00 0.00 63 969.1
20260503033341 49 38 0.0 0.0 0.00 0.00 0.00 63 969.1
20260503032839 49 43 0.0 0.0 0.00 0.00 0.00 62 969.1
20260503032337 49 39 0.0 0.0 0.00 0.00 0.00 62 969.1
20260503031835 49 26 0.0 1.0 0.00 0.00 0.00 61 969.1
20260503031333 49 39 0.0 1.0 0.00 0.00 0.00 62 969.1
20260503030831 49 27 0.0 1.0 0.00 0.00 0.00 62 969.1
20260503030329 49 43 0.0 0.0 0.00 0.00 0.00 64 969.0
20260503025827 49 43 0.0 0.0 0.00 0.00 0.00 63 969.0
20260503025325 49 42 0.0 0.0 0.00 0.00 0.00 65 969.0
20260503024823 49 41 0.0 0.0 0.00 0.00 0.00 63 969.0
20260503024320 49 42 0.0 0.0 0.00 0.00 0.00 62 968.9
20260503023818 50 42 0.0 0.0 0.00 0.00 0.00 62 968.8
20260503023316 50 40 0.0 0.0 0.00 0.00 0.00 63 968.8
20260503022814 49 37 0.0 1.0 0.00 0.00 0.00 61 968.7
20260503022312 49 39 0.0 2.0 0.00 0.00 0.00 62 968.7
20260503021810 49 46 0.0 2.0 0.00 0.00 0.00 62 968.6
20260503021308 49 43 0.0 0.0 0.00 0.00 0.00 61 968.6
20260503020806 49 42 0.0 0.0 0.00 0.00 0.00 61 968.7
20260503020304 49 37 0.0 0.0 0.00 0.00 0.00 61 968.6
20260503015802 49 35 0.0 1.0 0.00 0.00 0.00 62 968.6
20260503015300 49 354 0.0 0.0 0.00 0.00 0.00 63 968.6
20260503014758 49 254 0.0 0.0 0.00 0.00 0.00 61 968.5
20260503014256 50 286 0.0 1.0 0.00 0.00 0.00 62 968.4
20260503013754 50 0 0.0 1.0 0.00 0.00 0.00 60 968.3
20260503013252 50 336 0.0 0.0 0.00 0.00 0.00 60 968.2
20260503012750 51 294 0.0 1.0 0.00 0.00 0.00 59 968.2
20260503012248 51 48 0.0 0.0 0.00 0.00 0.00 59 968.2
20260503011745 51 43 0.0 0.0 0.00 0.00 0.00 58 968.2
20260503011244 51 37 0.0 1.0 0.00 0.00 0.00 58 968.1
20260503010742 51 38 0.0 1.0 0.00 0.00 0.00 59 968.1
20260503010240 51 40 0.0 1.0 0.00 0.00 0.00 59 968.0
20260503005737 51 38 0.0 1.0 0.00 0.00 0.00 58 967.9
20260503005235 51 36 0.0 1.0 0.00 0.00 0.00 58 967.8
20260503004733 51 40 0.0 0.0 0.00 0.00 0.00 58 967.8
20260503004231 51 36 0.0 0.0 0.00 0.00 0.00 58 967.7
20260503003729 51 41 0.0 1.0 0.00 0.00 0.00 57 967.6
20260503003227 52 255 0.0 1.0 0.00 0.00 0.00 56 967.6
20260503002725 52 300 0.0 0.0 0.00 0.00 0.00 56 967.5
20260503002223 53 294 0.0 0.0 0.00 0.00 0.00 55 967.5
20260503001721 53 304 0.0 0.0 0.00 0.00 0.00 55 967.4
20260503001219 53 302 0.0 1.0 0.00 0.00 0.00 54 967.4
20260503000717 54 339 0.0 0.0 0.00 0.00 0.00 55 967.4
20260503000215 54 285 0.0 0.0 0.00 0.00 0.00 53 967.3
20260502235713 55 352 0.0 1.0 0.00 0.00 0.00 54 967.3
20260502235211 56 351 0.0 1.0 0.00 0.00 0.00 50 967.2
20260502234709 56 312 0.0 1.0 0.00 0.00 0.00 49 967.1
20260502234207 56 342 0.0 0.0 0.00 0.00 0.00 50 967.1
20260502233705 56 314 0.0 0.0 0.00 0.00 0.00 51 967.0
20260502233203 57 306 0.0 1.0 0.00 0.00 0.00 50 967.0
20260502232701 57 301 1.0 2.0 0.00 0.00 0.00 49 967.0
20260502232159 57 332 0.0 1.0 0.00 0.00 0.00 49 967.0
20260502231657 57 266 0.0 1.0 0.00 0.00 0.00 49 967.0
20260502231155 57 334 1.0 1.0 0.00 0.00 0.00 48 966.9
20260502230653 57 322 0.0 1.0 0.00 0.00 0.00 49 966.9
20260502230151 56 316 0.0 1.0 0.00 0.00 0.00 49 966.9
20260502225649 56 320 0.0 1.0 0.00 0.00 0.00 48 966.9
20260502225146 57 339 0.0 1.0 0.00 0.00 0.00 47 967.0
20260502224644 57 331 0.0 1.0 0.00 0.00 0.00 47 966.9
20260502224142 57 318 1.0 1.0 0.00 0.00 0.00 46 966.9
20260502223641 57 290 1.0 2.0 0.00 0.00 0.00 46 966.8
20260502223138 58 257 1.0 2.0 0.00 0.00 0.00 46 966.9
20260502222636 58 261 1.0 1.0 0.00 0.00 0.00 44 966.9
20260502222135 59 351 1.0 2.0 0.00 0.00 0.00 43 966.7
20260502221632 59 308 1.0 2.0 0.00 0.00 0.00 44 966.6
20260502221130 60 272 0.0 1.0 0.00 0.00 0.00 43 966.6
20260502220628 59 1 1.0 2.0 0.00 0.00 0.00 43 966.4
20260502220126 59 289 0.0 1.0 0.00 0.00 0.00 44 966.4
20260502215624 59 339 0.0 1.0 0.00 0.00 0.00 44 966.3
20260502215122 59 282 0.0 1.0 0.00 0.00 0.00 44 966.3
20260502214620 58 300 0.0 1.0 0.00 0.00 0.00 45 966.3
20260502214118 58 7 0.0 2.0 0.00 0.00 0.00 45 966.3
20260502213616 58 327 0.0 1.0 0.00 0.00 0.00 46 966.3
20260502213114 59 293 0.0 1.0 0.00 0.00 0.00 43 966.1
20260502212612 59 345 0.0 1.0 0.00 0.00 0.00 46 966.1
20260502212110 58 239 1.0 2.0 0.00 0.00 0.00 44 966.1
20260502211608 59 326 1.0 2.0 0.00 0.00 0.00 44 966.1
20260502211106 59 341 0.0 1.0 0.00 0.00 0.00 44 966.1
20260502210604 59 283 1.0 1.0 0.00 0.00 0.00 45 966.0
20260502205600 58 333 0.0 1.0 0.00 0.00 0.00 45 966.1
20260502205058 58 272 0.0 1.0 0.00 0.00 0.00 46 966.0
20260502204556 59 309 0.0 2.0 0.00 0.00 0.00 44 966.1
20260502204053 59 271 0.0 2.0 0.00 0.00 0.00 45 966.2
20260502203551 60 357 0.0 1.0 0.00 0.00 0.00 45 965.9
20260502203049 59 311 0.0 1.0 0.00 0.00 0.00 44 966.1
20260502202547 59 306 0.0 1.0 0.00 0.00 0.00 43 966.1
20260502202045 60 326 1.0 3.0 0.00 0.00 0.00 43 966.3
20260502201543 59 317 0.0 1.0 0.00 0.00 0.00 44 966.1
20260502201041 59 300 1.0 1.0 0.00 0.00 0.00 44 966.2